Regional Weather Roundup
Issued by NWS Midland/Odessa, TX

Skip options and go directly to product.
Home | Oldest Version | Previous Version | Current Version | All | Text Only | Save Text | Print | Product List | Glossary On

Skip product version selection by date and time.   
254
ASUS44 KMAF 232010
RWRMAF
MIDLAND AREA WEATHER ROUNDUP
NATIONAL WEATHER SERVICE MIDLAND TX
300 PM CDT TUE SEP 23 2014

...IN SOUTHWEST TEXAS AND SOUTHEAST NEW MEXICO...

CITY           SKY/WX    TMP DP  RH WIND       PRES   REMARKS
ALPINE         PTSUNNY   78  51  38 CALM      30.26F
ANDREWS        FAIR      79  61  53 S12G20    30.15F
ARTESIA        NOT AVBL
BIG SPRING     PTSUNNY   84  61  45 S12       30.15F
CARLSBAD       PTSUNNY   79  68  69 SE9       30.12F
DRYDEN           N/A     92  59  33 SE13G20   30.09F
FORT STOCKTON  SUNNY     83  57  41 S10G21    30.13F
GUAD PASS      PTSUNNY   74  58  57 SW17      30.26F
HOBBS          MOSUNNY   77  59  53 S13G18    30.18F
MARFA          PTSUNNY   75  52  43 E6        30.26F
MIDLAND AIRPK  PTSUNNY   83  60  46 S17G26    30.14F
MIDLAND INTL   PTSUNNY   83  61  47 S14       30.13F
ODESSA         PTSUNNY   80  62  54 S18       30.15F
PECOS          MOSUNNY   82  56  41 S5        30.11F
PRESIDIO       FAIR      85  52  32 CALM      30.09F
SEMINOLE       PTSUNNY   78  61  55 S15G21    30.17F
SNYDER         PTSUNNY   81  67  61 S13       30.15F
WINK           PTSUNNY   84  58  40 S14       30.11F
$$
...OTHER STATIONS IN TEXAS...

CITY           SKY/WX    TMP DP  RH WIND       PRES   REMARKS
ABILENE        PTSUNNY   85  62  46 SE9       30.12F
AMARILLO       MOSUNNY   83  58  42 SW21G31   30.13F
AUSTIN         MOSUNNY   82  58  43 VRB3      30.10F
BROWNSVILLE    PTSUNNY   89  72  56 NE8       30.00F
CORPUS CHRISTI PTSUNNY   89  68  49 E13       30.03F
DALLAS FTW     MOSUNNY   82  50  32 CALM      30.13F
DEL RIO        SUNNY     90  60  36 SE12      30.06F
EL PASO        MOSUNNY   79  58  48 E3        30.15F
HOUSTON INT    PTSUNNY   83  56  39 N6        30.09F
LUBBOCK        PTSUNNY   80  61  52 S16G25    30.15F
SAN ANGELO     PTSUNNY   88  62  41 VRB3      30.11F
SAN ANTONIO    PTSUNNY   89  58  34 E9        30.08F
WACO           PTSUNNY   84  51  31 VRB7      30.12F
WICHITA FALLS  NOT AVBL
$$
...OTHER LOCATIONS IN NEW MEXICO...

CITY           SKY/WX    TMP DP  RH WIND       PRES   REMARKS
ALAMAGORDO     MOSUNNY   79  61  53 S5        30.17F
ALBUQUERQUE    MOSUNNY   75  57  53 SW8       30.23F
CANNON AFB     PTSUNNY   78  57  48 SW15      30.17F
CLOVIS           N/A     77  57  50 SW16      30.19F
HOLLOMAN AFB   NOT AVBL
ROSWELL        MOSUNNY   78  60  53 S10       30.15F
RUIDOSO        MOSUNNY   72  54  53 W7        30.33F
SANTA FE       MOSUNNY   76  51  41 W10G17    30.25F
TRUTH OR CONSE SUNNY     77  59  53 S9        30.19F
TUCUMCARI      MOSUNNY   80  56  43 SW14      30.11F
$$

USA.gov is the U.S. government's official web portal to all federal, state and local government web resources and services.